• In Germany
  • List of Countries
  • For 7 days
  • Water Temperature
  • Satellite Maps
  • Weather Map
  • Weather Widgets
  • user-avatar
    Login

    Hourly Weather Shkoder

    Today, 17 January, Wednesday

    Time Temperature Precipitation Wind Pressure Humidity
    00:00 +8°C° 0.6 mm 3 mps 735 mmHg 94%
    01:00 +9°C° 0.6 mm 3 mps 735 mmHg 95%
    02:00 +8°C° 0.7 mm 4 mps 734 mmHg 94%
    03:00 +8°C° 0.7 mm 4 mps 734 mmHg 94%
    04:00 +8°C° 0.7 mm 5 mps 733 mmHg 94%
    05:00 +8°C° 1.2 mm 5 mps 732 mmHg 94%
    06:00 +8°C° 1.2 mm 6 mps 732 mmHg 94%
    07:00 +8°C° 1.2 mm 6 mps 731 mmHg 94%
    08:00 +9°C° 2 mm 7 mps 730 mmHg 94%
    09:00 +9°C° 2 mm 8 mps 729 mmHg 93%
    10:00 +9°C° 2 mm 8 mps 729 mmHg 93%
    11:00 +10°C° 1.9 mm 8 mps 727 mmHg 92%
    12:00 +10°C° 1.9 mm 9 mps 726 mmHg 91%
    13:00 +10°C° 1.9 mm 9 mps 725 mmHg 90%
    14:00 +10°C° 1.3 mm 9 mps 725 mmHg 89%
    15:00 +8°C° 1.3 mm 9 mps 725 mmHg 87%
    16:00 +8°C° 1.3 mm 9 mps 725 mmHg 86%
    17:00 +7°C° 0.3 mm 9 mps 725 mmHg 83%
    18:00 +6°C° 0.3 mm 8 mps 726 mmHg 80%
    19:00 +5°C° 0.3 mm 7 mps 727 mmHg 78%
    20:00 +5°C° 0.5 mm 7 mps 728 mmHg 78%
    21:00 +4°C° 0.5 mm 7 mps 729 mmHg 78%
    22:00 +3°C° 0.5 mm 6 mps 730 mmHg 78%
    23:00 +2°C° 0.1 mm 6 mps 731 mmHg 78%

    Tomorrow, 18 January, Thursday

    Time Temperature Precipitation Wind Pressure Humidity
    00:00 +2°C° 0.1 mm 5 mps 733 mmHg 77%
    01:00 +1°C° 0.1 mm 4 mps 734 mmHg 77%
    02:00 0°C° 0 mm 4 mps 734 mmHg 76%
    03:00 -1°C° 0 mm 4 mps 735 mmHg 76%
    04:00 -2°C° 0 mm 4 mps 736 mmHg 76%
    05:00 -2°C° 0 mm 4 mps 737 mmHg 75%
    06:00 -2°C° 0 mm 4 mps 737 mmHg 74%
    07:00 -2°C° 0 mm 4 mps 738 mmHg 73%
    08:00 -1°C° 0 mm 4 mps 739 mmHg 67%
    09:00 +1°C° 0 mm 4 mps 740 mmHg 62%
    10:00 +3°C° 0 mm 4 mps 740 mmHg 56%
    11:00 +4°C° 0 mm 4 mps 740 mmHg 54%
    12:00 +4°C° 0 mm 4 mps 741 mmHg 51%
    13:00 +5°C° 0 mm 4 mps 741 mmHg 49%
    14:00 +5°C° 0 mm 3 mps 741 mmHg 53%
    15:00 +4°C° 0 mm 3 mps 741 mmHg 56%
    16:00 +5°C° 0 mm 2 mps 741 mmHg 60%
    17:00 +4°C° 0 mm 2 mps 741 mmHg 61%
    18:00 +3°C° 0 mm 2 mps 741 mmHg 62%
    19:00 +2°C° 0 mm 2 mps 741 mmHg 63%
    20:00 +2°C° 0 mm 2 mps 742 mmHg 64%
    21:00 +3°C° 0 mm 2 mps 742 mmHg 64%
    22:00 +3°C° 0 mm 2 mps 742 mmHg 65%
    23:00 +2°C° 0 mm 3 mps 741 mmHg 66%

    Day after tomorrow, 19 January, Friday

    Time Temperature Precipitation Wind Pressure Humidity
    00:00 +2°C° 0 mm 3 mps 741 mmHg 68%
    01:00 +2°C° 0 mm 3 mps 741 mmHg 69%
    02:00 +2°C° 0 mm 3 mps 740 mmHg 72%
    03:00 +2°C° 0 mm 3 mps 740 mmHg 75%
    04:00 +2°C° 0 mm 3 mps 739 mmHg 78%
    05:00 +3°C° 0 mm 3 mps 739 mmHg 79%
    06:00 +3°C° 0 mm 3 mps 739 mmHg 79%
    07:00 +4°C° 0 mm 3 mps 739 mmHg 79%
    08:00 +4°C° 0.1 mm 3 mps 739 mmHg 81%
    09:00 +5°C° 0.1 mm 3 mps 739 mmHg 83%
    10:00 +6°C° 0.1 mm 4 mps 739 mmHg 85%
    11:00 +6°C° 0.2 mm 4 mps 738 mmHg 86%
    12:00 +7°C° 0.2 mm 3 mps 738 mmHg 87%
    13:00 +7°C° 0.2 mm 3 mps 737 mmHg 89%
    14:00 +7°C° 0.5 mm 3 mps 737 mmHg 90%
    15:00 +7°C° 0.5 mm 3 mps 737 mmHg 91%
    16:00 +6°C° 0.5 mm 4 mps 737 mmHg 92%
    17:00 +7°C° 0.6 mm 4 mps 737 mmHg 93%
    18:00 +7°C° 0.6 mm 4 mps 737 mmHg 93%
    19:00 +7°C° 0.6 mm 4 mps 736 mmHg 94%
    20:00 +7°C° 0.8 mm 5 mps 736 mmHg 93%
    21:00 +7°C° 0.8 mm 5 mps 736 mmHg 93%
    22:00 +7°C° 0.8 mm 6 mps 736 mmHg 93%
    23:00 +7°C° 0.9 mm 6 mps 736 mmHg 93%

    20 January, Saturday

    Time Temperature Precipitation Wind Pressure Humidity
    00:00 +8°C° 0.9 mm 6 mps 735 mmHg 93%
    01:00 +8°C° 0.9 mm 6 mps 735 mmHg 93%
    02:00 +8°C° 2.3 mm 6 mps 735 mmHg 93%
    03:00 +8°C° 2.3 mm 6 mps 734 mmHg 94%
    04:00 +8°C° 2.3 mm 6 mps 734 mmHg 94%
    05:00 +8°C° 2.7 mm 6 mps 733 mmHg 94%
    06:00 +8°C° 2.7 mm 7 mps 733 mmHg 93%
    07:00 +8°C° 2.7 mm 7 mps 733 mmHg 93%
    08:00 +8°C° 2.9 mm 7 mps 733 mmHg 93%
    09:00 +8°C° 2.9 mm 7 mps 732 mmHg 92%
    10:00 +8°C° 2.9 mm 7 mps 732 mmHg 92%
    11:00 +8°C° 1.6 mm 7 mps 732 mmHg 91%
    12:00 +8°C° 1.6 mm 6 mps 731 mmHg 89%
    13:00 +8°C° 1.6 mm 6 mps 731 mmHg 88%
    14:00 +8°C° 1 mm 5 mps 731 mmHg 88%
    15:00 +8°C° 1 mm 5 mps 731 mmHg 88%
    16:00 +7°C° 1 mm 4 mps 731 mmHg 89%
    17:00 +7°C° 0.9 mm 4 mps 731 mmHg 90%
    18:00 +6°C° 0.9 mm 4 mps 731 mmHg 91%
    19:00 +6°C° 0.9 mm 4 mps 732 mmHg 92%
    20:00 +5°C° 0.6 mm 4 mps 732 mmHg 92%
    21:00 +5°C° 0.6 mm 4 mps 732 mmHg 92%
    22:00 +5°C° 0.6 mm 4 mps 733 mmHg 92%
    23:00 +4°C° 0.3 mm 3 mps 734 mmHg 91%

    21 January, Sunday

    Time Temperature Precipitation Wind Pressure Humidity
    00:00 +4°C° 0.3 mm 3 mps 734 mmHg 91%
    01:00 +4°C° 0.3 mm 2 mps 735 mmHg 91%
    02:00 +4°C° 0.2 mm 2 mps 735 mmHg 91%
    03:00 +4°C° 0.2 mm 2 mps 735 mmHg 91%
    04:00 +3°C° 0.2 mm 2 mps 735 mmHg 91%
    05:00 +3°C° 0.1 mm 2 mps 735 mmHg 90%
    06:00 +2°C° 0.1 mm 2 mps 735 mmHg 89%
    07:00 +1°C° 0.1 mm 3 mps 735 mmHg 88%
    08:00 +1°C° 0.1 mm 3 mps 735 mmHg 85%
    09:00 +1°C° 0.1 mm 4 mps 735 mmHg 82%
    10:00 +1°C° 0.1 mm 4 mps 736 mmHg 79%
    11:00 +1°C° 0.2 mm 5 mps 736 mmHg 78%
    12:00 +1°C° 0.2 mm 5 mps 736 mmHg 78%
    13:00 +1°C° 0.2 mm 5 mps 736 mmHg 77%
    14:00 +1°C° 0.2 mm 6 mps 736 mmHg 77%
    15:00 -1°C° 0.2 mm 6 mps 736 mmHg 76%
    16:00 -1°C° 0.2 mm 6 mps 736 mmHg 76%
    17:00 -1°C° 0.1 mm 6 mps 737 mmHg 75%
    18:00 -2°C° 0.1 mm 6 mps 737 mmHg 75%
    19:00 -2°C° 0.1 mm 6 mps 738 mmHg 75%
    20:00 -2°C° 0 mm 6 mps 738 mmHg 75%
    21:00 -3°C° 0 mm 6 mps 739 mmHg 75%
    22:00 -3°C° 0 mm 6 mps 739 mmHg 75%
    23:00 -2°C° 0 mm 5 mps 739 mmHg 75%

    22 January, Monday

    Time Temperature Precipitation Wind Pressure Humidity
    00:00 -4°C° 0 mm 5 mps 740 mmHg 75%
    01:00 -4°C° 0 mm 5 mps 740 mmHg 75%
    02:00 -4°C° 0 mm 5 mps 740 mmHg 75%
    03:00 -4°C° 0 mm 4 mps 740 mmHg 75%
    04:00 -4°C° 0 mm 4 mps 741 mmHg 75%
    05:00 -4°C° 0 mm 4 mps 741 mmHg 75%
    06:00 -4°C° 0 mm 4 mps 741 mmHg 75%
    07:00 -5°C° 0 mm 3 mps 742 mmHg 75%
    08:00 -2°C° 0 mm 3 mps 742 mmHg 70%
    09:00 -1°C° 0 mm 3 mps 742 mmHg 66%
    10:00 +1°C° 0 mm 3 mps 742 mmHg 62%
    11:00 +2°C° 0 mm 2 mps 742 mmHg 58%
    12:00 +3°C° 0 mm 2 mps 742 mmHg 55%
    13:00 +5°C° 0 mm 1 mps 742 mmHg 51%
    14:00 +5°C° 0 mm 1 mps 742 mmHg 55%
    15:00 +4°C° 0 mm 1 mps 742 mmHg 58%
    16:00 +4°C° 0 mm 1 mps 742 mmHg 62%
    17:00 +3°C° 0 mm 1 mps 742 mmHg 63%
    18:00 +2°C° 0 mm 1 mps 742 mmHg 65%
    19:00 -1°C° 0 mm 2 mps 743 mmHg 66%
    20:00 -1°C° 0 mm 2 mps 743 mmHg 65%
    21:00 -1°C° 0 mm 2 mps 743 mmHg 63%
    22:00 -1°C° 0 mm 2 mps 743 mmHg 62%
    23:00 -1°C° 0 mm 2 mps 743 mmHg 60%
    Show more